[[[{"header":{"parameterUnit":"kt","parameterCategory":2,"dx":1,"dy":1,"la1":30.253999710083008,"la2":30.299108505249023,"lo1":-89.0895004272461,"lo2":-89.04439544677734,"nx":28,"ny":28,"refTime":"2022-10-23T21:00:00:Z","depth":0,"parameterNumber":1,"parameterNumberName":"U-component_of_WINDS"},"data":[3.5312,3.5346,3.5324,3.5354,3.5339,3.5356,3.5355,3.5352,3.5344,3.5362,3.5369,3.5352,3.5336,3.534,3.5347,3.5339,3.5343,3.5372,3.5358,3.5248,3.5231,3.5216,3.5205,3.5374,3.5374,3.5474,3.5475,3.5476,3.5235,3.5221,3.523,3.5223,3.5231,3.519,3.5182,3.5191,3.5208,3.5198,3.5203,3.5218,3.5228,3.5201,3.5207,3.5224,3.5205,3.5227,3.5225,3.5223,3.5105,3.5094,3.5242,3.5242,3.5242,3.5242,3.5242,3.5242,3.5089,3.5111,3.5093,3.5102,3.5093,3.5089,3.5106,3.5082,3.5092,3.5093,3.5065,3.5084,3.507,3.5066,3.5059,3.5073,3.5045,3.5062,3.5066,3.5071,3.508,3.4938,3.5073,3.5073,3.5072,3.5072,3.5072,0,3.4975,3.4955,3.4961,3.4961,3.4967,3.4965,3.4959,3.4969,3.4918,3.4928,3.494,3.4944,3.4952,3.4961,3.4961,3.495,3.4909,3.4902,3.4914,3.4927,3.494,3.4934,3.4742,3.4898,3.4896,3.4895,3.4894,3.4894,3.4826,3.4854,3.4824,3.4831,3.4822,3.4836,3.4839,3.4791,3.4797,3.4784,3.4806,3.4815,3.4819,3.4844,3.4817,3.4823,3.4802,3.4864,3.4803,3.4815,3.4803,3.4802,3.4805,3.4877,3.4879,3.4881,3.4882,0,3.4745,3.4706,3.4741,3.4708,3.4701,3.4733,3.4705,3.4725,3.4699,3.4723,3.4726,3.4686,3.47,3.4661,3.4669,3.4649,3.4703,3.4684,3.4708,3.4702,3.4753,3.4749,3.4927,3.4948,3.4773,3.4775,3.4776,0,3.4602,3.464,3.458,3.4602,3.4644,3.4593,3.4636,3.4617,3.4603,3.4622,3.4567,3.4586,3.4534,3.4548,3.4518,3.4555,3.4557,3.4543,3.4535,3.4548,3.455,3.4551,3.4542,3.4514,3.4514,3.4513,3.4512,0,3.4478,3.449,3.4526,3.4522,3.449,3.4509,3.4497,3.448,3.4484,3.4483,3.4485,3.4488,3.449,3.4494,3.4455,3.4415,3.45,3.4437,3.4486,3.4487,3.4507,3.4506,3.4673,3.4511,3.4511,3.451,3.451,0,3.4356,3.4354,3.4412,3.4384,3.4389,3.4413,3.4411,3.4423,3.4409,3.4391,3.439,3.4349,3.4378,3.4318,3.4357,3.4316,3.4321,3.4311,3.4313,3.4313,3.4247,3.4347,3.451,3.4526,3.4314,3.4313,3.4311,0,3.4224,3.4272,3.4228,3.4285,3.4301,3.4237,3.4263,3.4252,3.423,3.4241,3.4217,3.4231,3.4177,3.4176,3.4201,3.4177,3.4231,3.4168,3.4188,3.4189,3.4193,3.4343,3.4376,3.4479,3.429,3.4292,3.4294,0,3.4117,3.4076,3.4089,3.4082,3.4058,3.4071,3.4101,3.4103,3.4113,3.4106,3.4131,3.4149,3.411,3.4108,3.4075,3.4103,3.4193,3.4057,3.4056,3.4083,3.4276,3.4307,3.4325,3.4165,3.4167,3.4169,3.4277,0,3.3942,3.396,3.3993,3.398,3.3984,3.4017,3.3972,3.3983,3.3949,3.3924,3.3959,3.394,3.3942,3.3951,3.3919,3.3995,3.3976,3.3934,3.3872,3.3971,3.4005,3.4019,3.3824,3.3822,3.3821,3.3819,0,0,3.3826,3.385,3.38,3.3825,3.3825,3.3757,3.3797,3.3789,3.3775,3.3778,3.3743,3.3766,3.3752,3.3799,3.3827,3.3828,3.3838,3.3804,3.3924,3.3936,3.3947,3.3985,3.4,3.3816,3.3815,3.3815,3.3814,0,3.3752,3.3736,3.3774,3.3763,3.3745,3.3716,3.3726,3.3696,3.3682,3.3715,3.3659,3.3675,3.3695,3.3687,3.3686,3.3798,3.3755,3.3802,3.3876,3.3908,3.3922,3.3935,3.3975,3.399,3.381,3.381,3.381,0,3.3638,3.3615,3.3628,3.3624,3.3611,3.363,3.3554,3.3576,3.359,3.3515,3.3549,3.3532,3.3518,3.3568,3.3589,3.3558,3.3682,3.3635,3.3645,3.3647,3.3675,3.3692,3.3708,3.3507,3.3506,3.3505,0,0,3.358,3.3596,3.3556,3.3604,3.36,3.3557,3.3562,3.3528,3.3516,3.3511,3.3488,3.3479,3.349,3.3498,3.3506,3.3567,3.3561,3.36,3.3614,3.3626,3.3634,3.3666,3.3683,3.3502,3.3501,3.3501,0,0,3.3553,3.3508,3.3475,3.3525,3.3514,3.3479,3.3511,3.347,3.3472,3.3463,3.3409,3.3404,3.345,3.3436,3.3396,3.3483,3.3423,3.3432,3.3491,3.3508,3.3522,3.3524,3.3316,0,0,0,0,0,3.3454,3.3513,3.3484,3.3485,3.3479,3.3495,3.3494,3.3449,3.3407,3.3434,3.3408,3.3361,3.3403,3.3367,3.337,3.3415,3.3458,3.3466,3.3473,3.3563,3.3582,3.3598,0,0,0,0,0,0,3.3454,3.3456,3.3482,3.3449,3.3447,3.3492,3.3412,3.3401,3.3403,3.3394,3.3368,3.3361,3.3324,3.3362,3.3366,3.3409,3.3315,3.3461,3.3468,3.3474,3.357,3.3585,3.3598,0,0,0,0,0,3.3454,3.3455,3.3457,3.3448,3.3447,3.3401,3.3409,3.3399,3.34,3.3361,3.3352,3.3366,3.3326,3.3326,3.3364,3.3409,3.3312,3.3314,3.3466,3.3471,3.3475,3.3577,0,0,0,0,0,0,3.3454,3.3447,3.3455,3.3453,3.3422,3.3398,3.3392,3.3398,3.3366,3.3358,3.3356,3.3349,3.3328,3.3328,3.3328,3.3411,3.331,3.3311,3.3312,3.347,3.3474,3.3477,0,0,0,0,0,0,3.3446,3.3446,3.3454,3.3423,3.3417,3.3395,3.339,3.3416,3.3367,3.3363,3.3356,3.3353,3.3328,3.333,3.333,3.3372,3.3308,3.3309,3.331,3.3311,3.3473,3.3476,0,0,0,0,0,0,3.3445,3.3445,3.3423,3.3419,3.3413,3.3386,3.3417,3.3413,3.3339,3.3366,3.3331,3.3328,3.3332,3.3331,3.3331,3.3374,3.3372,3.3308,3.3309,3.331,3.331,0,0,0,0,0,0,0,3.3444,3.3455,3.3468,3.3415,3.341,3.3434,3.3433,3.3432,3.3338,3.3335,3.3332,3.3329,3.33,3.3301,3.3303,3.3375,0,0,3.3308,3.3309,0,0,0,0,0,0,0,0,3.3454,3.3455,3.3468,3.3467,3.3467,3.3434,3.3433,3.3433,3.3338,3.3335,3.3333,3.333,3.33,3.3301,3.3303,0,0,0,0,0,0,0,0,0,0,0,0,0,0,0,3.3468,3.3467,0,3.3433,3.3433,3.3433,3.3337,3.3335,3.3333,3.3331,3.33,3.3301,3.3302,0,0,0,0,0,0,0,0,0,0,0,0,0,0,0,0,0,0,0,0,0,0,0,0,0,0,0,0,0,0,0,0,0,0,0,0,0,0,0,0,0,0,0,0,0,0,0,0,0,0,0,0,0,0,0,0,0,0,0,0,0,0,0,0,0,0,0,0,0]}],[{"header":{"parameterUnit":"kt","parameterCategory":2,"dx":1,"dy":1,"la1":30.253999710083008,"la2":30.299108505249023,"lo1":-89.0895004272461,"lo2":-89.04439544677734,"nx":28,"ny":28,"refTime":"2022-10-23T21:00:00:Z","depth":0,"parameterNumber":2,"parameterNumberName":"V-component_of_WINDS"},"data":[18.1543,18.1728,18.1757,18.1977,18.2038,18.2192,18.2254,18.2336,18.2406,18.2586,18.2693,18.2731,18.2805,18.2933,18.3044,18.3057,18.3103,18.3151,18.3158,18.2926,18.2895,18.2865,18.2827,18.3161,18.3161,18.3397,18.3399,18.3401,18.1374,18.1439,18.1564,18.1703,18.1809,18.178,18.1884,18.1973,18.2108,18.2194,18.23,18.2458,18.2582,18.2639,18.276,18.284,18.283,18.2871,18.2866,18.2878,18.263,18.2589,18.2878,18.2878,18.2878,18.2878,18.2878,18.2878,18.1074,18.1183,18.1284,18.142,18.1495,18.1586,18.1692,18.1741,18.1858,18.1994,18.1995,18.2145,18.2231,18.2385,18.244,18.2554,18.251,18.256,18.2573,18.2586,18.2599,18.2261,18.2574,18.2573,18.2572,18.2572,18.2571,0,18.0862,18.0879,18.1,18.113,18.1228,18.1328,18.1423,18.1489,18.152,18.1614,18.1752,18.1833,18.1991,18.2118,18.2234,18.228,18.2252,18.225,18.2285,18.2289,18.2279,18.2289,18.1886,18.224,18.2238,18.2236,18.2234,18.2233,18.0563,18.0686,18.0802,18.0883,18.0943,18.1071,18.1151,18.1171,18.1254,18.1368,18.1459,18.1588,18.1692,18.19,18.1945,18.206,18.2047,18.2181,18.2063,18.2063,18.2051,18.2045,18.2057,18.2203,18.2207,18.221,18.2213,0,18.0392,18.0434,18.0632,18.0732,18.0761,18.0886,18.0969,18.1074,18.1106,18.1254,18.1289,18.1338,18.1468,18.1492,18.1642,18.1649,18.1849,18.1832,18.1822,18.1821,18.1944,18.1933,18.2338,18.2392,18.2044,18.2047,18.205,0,18.0153,18.0312,18.0365,18.0478,18.0654,18.0671,18.0842,18.0888,18.0964,18.1081,18.1055,18.1164,18.1177,18.1288,18.1299,18.1466,18.1493,18.1509,18.151,18.1513,18.1511,18.1554,18.1539,18.1505,18.1503,18.1501,18.15,0,17.9883,18.0096,18.0279,18.0333,18.0453,18.0536,18.0588,18.0673,18.0749,18.085,18.09,18.1014,18.1077,18.1163,18.1178,18.1098,18.1382,18.1274,18.1398,18.1398,18.146,18.1456,18.1809,18.1497,18.1497,18.1496,18.1495,0,17.9696,17.9808,18.0065,18.0165,18.0219,18.0336,18.0456,18.0562,18.0651,18.0668,18.0747,18.0731,18.0879,18.0771,18.0973,18.0865,18.0927,18.0955,18.0964,18.098,18.0859,18.1057,18.1389,18.1426,18.0993,18.0989,18.0985,0,17.9377,17.9648,17.9666,17.9907,18.0036,18.0004,18.0133,18.0214,18.0248,18.0357,18.039,18.0512,18.0437,18.0477,18.0574,18.0612,18.0752,18.0594,18.0745,18.075,18.0727,18.1032,18.1077,18.1314,18.0932,18.0937,18.0941,0,17.9135,17.9283,17.9325,17.9388,17.9502,17.9607,17.9755,17.9882,17.9955,18.0046,18.0169,18.0338,18.0289,18.0356,18.0354,18.0453,18.0657,18.0385,18.0387,18.0435,18.0906,18.0949,18.0988,18.0633,18.064,18.0645,18.0899,0,17.8848,17.8987,17.9102,17.924,17.9326,17.9477,17.9509,17.9593,17.9587,17.9619,17.9797,17.9864,17.9987,18.0036,18.0027,18.0248,18.0214,18.0159,18.0055,18.0255,18.0339,18.0374,17.9928,17.9925,17.9923,17.992,0,0,17.8532,17.8734,17.8747,17.8894,17.8968,17.8931,17.909,17.9154,17.9285,17.9335,17.9278,17.9527,17.9582,17.9795,17.9859,17.9907,17.9949,17.9877,18.0159,18.0186,18.021,18.03,18.0336,17.9916,17.9915,17.9914,17.9914,0,17.8436,17.8505,17.8665,17.8735,17.8839,17.8867,17.8905,17.8999,17.9026,17.9201,17.9163,17.9272,17.9468,17.9534,17.9593,17.9853,17.9815,17.9887,18.002,18.0134,18.0163,18.019,18.0284,18.0318,17.9907,17.9908,17.9908,0,17.8204,17.8279,17.8359,17.8525,17.8592,17.8721,17.8624,17.8764,17.8859,17.8803,17.8977,17.9017,17.9105,17.9301,17.939,17.9339,17.9693,17.9584,17.96,17.961,17.9721,17.9757,17.9789,17.9369,17.9367,17.9365,0,0,17.8115,17.8245,17.8327,17.8507,17.8552,17.8594,17.8664,17.8666,17.8751,17.8784,17.8835,17.8915,17.9029,17.9103,17.9211,17.9422,17.944,17.9517,17.9542,17.9563,17.9584,17.97,17.9736,17.9358,17.9358,17.9357,0,0,17.807,17.8177,17.8157,17.837,17.8455,17.8543,17.8649,17.8625,17.8726,17.8712,17.8712,17.8733,17.8917,17.8956,17.8855,17.9174,17.9071,17.9096,17.9142,17.9175,17.92,17.9187,17.8759,0,0,0,0,0,17.7989,17.8164,17.8145,17.8186,17.8392,17.8555,17.8581,17.859,17.8519,17.8603,17.8642,17.8597,17.8902,17.8813,17.885,17.8962,17.9263,17.928,17.9295,17.9406,17.9439,17.9468,0,0,0,0,0,0,17.8005,17.8055,17.8141,17.8237,17.8283,17.8549,17.8431,17.8438,17.8511,17.85,17.8591,17.86,17.8606,17.8795,17.8827,17.8934,17.8748,17.9269,17.9284,17.9296,17.9417,17.9445,17.9468,0,0,0,0,0,17.8018,17.8058,17.8388,17.8234,17.8274,17.8329,17.8424,17.8429,17.8485,17.8545,17.8552,17.8486,17.8609,17.8637,17.8814,17.8919,17.8725,17.8737,17.9279,17.929,17.93,17.9431,0,0,0,0,0,0,17.8028,17.8062,17.8396,17.8408,17.817,17.8314,17.8338,17.8422,17.8524,17.8534,17.8438,17.8429,17.8613,17.8634,17.8656,17.8914,17.8706,17.8719,17.8727,17.9287,17.9296,17.9304,0,0,0,0,0,0,17.804,17.8072,17.8402,17.832,17.8323,17.8301,17.8322,17.8471,17.8526,17.8411,17.8407,17.8433,17.8578,17.8633,17.8649,17.8882,17.8692,17.8704,17.8713,17.8718,17.9294,17.9301,0,0,0,0,0,0,17.8054,17.8081,17.8317,17.832,17.8322,17.846,17.8432,17.864,17.8463,17.8407,17.8446,17.8439,17.8578,17.8595,17.8646,17.8872,17.888,17.8693,17.8701,17.8707,17.871,0,0,0,0,0,0,0,17.8065,17.7878,17.8324,17.8319,17.8321,17.8523,17.8526,17.8529,17.8461,17.8455,17.8448,17.8442,17.8624,17.8637,17.8651,17.8863,0,0,17.8692,17.8697,0,0,0,0,0,0,0,0,17.7866,17.7875,17.8324,17.8327,17.8329,17.8523,17.8526,17.8528,17.846,17.8455,17.845,17.8445,17.8628,17.8638,17.8649,0,0,0,0,0,0,0,0,0,0,0,0,0,0,0,17.8324,17.8326,0,17.8523,17.8526,17.8528,17.8459,17.8455,17.8451,17.8447,17.8631,17.8639,17.8648,0,0,0,0,0,0,0,0,0,0,0,0,0,0,0,0,0,0,0,0,0,0,0,0,0,0,0,0,0,0,0,0,0,0,0,0,0,0,0,0,0,0,0,0,0,0,0,0,0,0,0,0,0,0,0,0,0,0,0,0,0,0,0,0,0,0,0,0,0]}]]]